• In Uzbekistan
  • List of Countries
  • For 7 days
  • Water Temperature
  • Satellite Maps
  • Weather Map
  • Weather Widgets
  • user-avatar
    Login

    Hourly Weather Mostar

    Today, 25 February, Sunday

    Time Temperature Precipitation Wind Pressure Humidity
    00:00 +1°C° 0.1 mm 5 mps 752 mmHg 76%
    01:00 +1°C° 0.1 mm 6 mps 752 mmHg 76%
    02:00 0°C° 0.2 mm 5 mps 752 mmHg 76%
    03:00 0°C° 0.2 mm 5 mps 752 mmHg 76%
    04:00 0°C° 0.2 mm 5 mps 752 mmHg 77%
    05:00 -2°C° 0.4 mm 6 mps 752 mmHg 78%
    06:00 -2°C° 0.4 mm 6 mps 752 mmHg 79%
    07:00 -3°C° 0.4 mm 6 mps 752 mmHg 81%
    08:00 -3°C° 0.6 mm 6 mps 752 mmHg 80%
    09:00 -3°C° 0.6 mm 6 mps 752 mmHg 80%
    10:00 -3°C° 0.6 mm 6 mps 752 mmHg 80%
    11:00 -2°C° 0.5 mm 6 mps 752 mmHg 79%
    12:00 -2°C° 0.5 mm 6 mps 752 mmHg 79%
    13:00 -2°C° 0.5 mm 6 mps 752 mmHg 79%
    14:00 -2°C° 0.2 mm 6 mps 751 mmHg 78%
    15:00 -2°C° 0.2 mm 5 mps 751 mmHg 77%
    16:00 -2°C° 0.2 mm 5 mps 751 mmHg 77%
    17:00 -2°C° 0.1 mm 5 mps 751 mmHg 77%
    18:00 -4°C° 0.1 mm 5 mps 751 mmHg 76%
    19:00 -5°C° 0.1 mm 5 mps 751 mmHg 76%
    20:00 -5°C° 0 mm 5 mps 751 mmHg 76%
    21:00 -5°C° 0 mm 5 mps 751 mmHg 76%
    22:00 -6°C° 0 mm 5 mps 751 mmHg 76%
    23:00 -6°C° 0 mm 5 mps 750 mmHg 75%

    Tomorrow, 26 February, Monday

    Time Temperature Precipitation Wind Pressure Humidity
    00:00 -6°C° 0 mm 5 mps 750 mmHg 75%
    01:00 -6°C° 0 mm 5 mps 750 mmHg 74%
    02:00 -6°C° 0 mm 5 mps 749 mmHg 74%
    03:00 -6°C° 0 mm 5 mps 749 mmHg 74%
    04:00 -6°C° 0 mm 5 mps 749 mmHg 74%
    05:00 -6°C° 0.1 mm 5 mps 748 mmHg 75%
    06:00 -7°C° 0.1 mm 5 mps 748 mmHg 75%
    07:00 -7°C° 0.1 mm 5 mps 748 mmHg 75%
    08:00 -6°C° 0.2 mm 5 mps 748 mmHg 77%
    09:00 -6°C° 0.2 mm 5 mps 748 mmHg 78%
    10:00 -5°C° 0.2 mm 5 mps 747 mmHg 79%
    11:00 -4°C° 0.2 mm 4 mps 747 mmHg 78%
    12:00 -3°C° 0.2 mm 4 mps 747 mmHg 77%
    13:00 -2°C° 0.2 mm 4 mps 747 mmHg 76%
    14:00 -2°C° 0.2 mm 4 mps 747 mmHg 76%
    15:00 -2°C° 0.2 mm 4 mps 747 mmHg 76%
    16:00 -1°C° 0.2 mm 3 mps 747 mmHg 77%
    17:00 -1°C° 0.1 mm 3 mps 747 mmHg 78%
    18:00 -2°C° 0.1 mm 3 mps 747 mmHg 79%
    19:00 -2°C° 0.1 mm 3 mps 748 mmHg 80%
    20:00 -2°C° 0.1 mm 3 mps 748 mmHg 80%
    21:00 -4°C° 0.1 mm 3 mps 748 mmHg 80%
    22:00 -4°C° 0.1 mm 3 mps 748 mmHg 79%
    23:00 -4°C° 0.1 mm 3 mps 748 mmHg 80%

    Day after tomorrow, 27 February, Tuesday

    Time Temperature Precipitation Wind Pressure Humidity
    00:00 -5°C° 0.1 mm 3 mps 748 mmHg 80%
    01:00 -4°C° 0.1 mm 2 mps 748 mmHg 80%
    02:00 -5°C° 0 mm 3 mps 749 mmHg 80%
    03:00 -5°C° 0 mm 3 mps 749 mmHg 80%
    04:00 -6°C° 0 mm 3 mps 749 mmHg 80%
    05:00 -6°C° 0 mm 3 mps 749 mmHg 80%
    06:00 -6°C° 0 mm 3 mps 749 mmHg 80%
    07:00 -6°C° 0 mm 3 mps 750 mmHg 80%
    08:00 -5°C° 0 mm 3 mps 750 mmHg 76%
    09:00 -4°C° 0 mm 3 mps 750 mmHg 72%
    10:00 -2°C° 0 mm 2 mps 750 mmHg 68%
    11:00 -1°C° 0 mm 2 mps 751 mmHg 65%
    12:00 +1°C° 0 mm 2 mps 751 mmHg 62%
    13:00 +3°C° 0 mm 1 mps 751 mmHg 59%
    14:00 +3°C° 0 mm 1 mps 751 mmHg 58%
    15:00 +2°C° 0 mm 1 mps 751 mmHg 57%
    16:00 +2°C° 0 mm 1 mps 751 mmHg 57%
    17:00 +1°C° 0 mm 1 mps 752 mmHg 61%
    18:00 0°C° 0 mm 1 mps 752 mmHg 66%
    19:00 -2°C° 0 mm 1 mps 753 mmHg 70%
    20:00 -4°C° 0 mm 2 mps 753 mmHg 72%
    21:00 -5°C° 0 mm 2 mps 753 mmHg 74%
    22:00 -5°C° 0 mm 2 mps 753 mmHg 76%
    23:00 -6°C° 0 mm 3 mps 753 mmHg 76%

    28 February, Wednesday

    Time Temperature Precipitation Wind Pressure Humidity
    00:00 -7°C° 0 mm 3 mps 753 mmHg 76%
    01:00 -7°C° 0 mm 3 mps 753 mmHg 76%
    02:00 -7°C° 0 mm 3 mps 753 mmHg 76%
    03:00 -8°C° 0 mm 3 mps 753 mmHg 76%
    04:00 -9°C° 0 mm 4 mps 753 mmHg 75%
    05:00 -9°C° 0 mm 4 mps 753 mmHg 75%
    06:00 -9°C° 0 mm 4 mps 754 mmHg 74%
    07:00 -9°C° 0 mm 4 mps 754 mmHg 74%
    08:00 -6°C° 0 mm 3 mps 754 mmHg 71%
    09:00 -5°C° 0 mm 3 mps 754 mmHg 67%
    10:00 -2°C° 0 mm 3 mps 755 mmHg 64%
    11:00 -1°C° 0 mm 3 mps 755 mmHg 61%
    12:00 0°C° 0 mm 3 mps 755 mmHg 58%
    13:00 +1°C° 0 mm 3 mps 755 mmHg 54%
    14:00 +1°C° 0 mm 3 mps 755 mmHg 56%
    15:00 +1°C° 0 mm 3 mps 755 mmHg 57%
    16:00 +1°C° 0 mm 3 mps 756 mmHg 58%
    17:00 -1°C° 0 mm 3 mps 756 mmHg 63%
    18:00 -2°C° 0 mm 3 mps 757 mmHg 69%
    19:00 -5°C° 0 mm 3 mps 758 mmHg 74%
    20:00 -6°C° 0 mm 3 mps 758 mmHg 74%
    21:00 -6°C° 0 mm 3 mps 759 mmHg 75%
    22:00 -7°C° 0 mm 3 mps 759 mmHg 76%
    23:00 -7°C° 0 mm 3 mps 759 mmHg 74%

    1 March, Thursday

    Time Temperature Precipitation Wind Pressure Humidity
    00:00 -7°C° 0 mm 3 mps 759 mmHg 72%
    01:00 -7°C° 0 mm 3 mps 759 mmHg 71%
    02:00 -7°C° 0 mm 3 mps 759 mmHg 68%
    03:00 -6°C° 0 mm 3 mps 758 mmHg 64%
    04:00 -6°C° 0 mm 3 mps 758 mmHg 61%
    05:00 -5°C° 0 mm 3 mps 758 mmHg 59%
    06:00 -5°C° 0 mm 3 mps 758 mmHg 58%
    07:00 -4°C° 0 mm 3 mps 757 mmHg 56%
    08:00 -1°C° 0 mm 3 mps 757 mmHg 54%
    09:00 +1°C° 0 mm 3 mps 757 mmHg 51%
    10:00 +3°C° 0 mm 3 mps 756 mmHg 49%
    11:00 +3°C° 0.1 mm 3 mps 756 mmHg 54%
    12:00 +4°C° 0.1 mm 3 mps 755 mmHg 59%
    13:00 +4°C° 0.1 mm 3 mps 755 mmHg 65%
    14:00 +4°C° 0.4 mm 4 mps 754 mmHg 70%
    15:00 +4°C° 0.4 mm 4 mps 754 mmHg 76%
    16:00 +4°C° 0.4 mm 4 mps 753 mmHg 82%
    17:00 +4°C° 0.6 mm 4 mps 753 mmHg 84%
    18:00 +3°C° 0.6 mm 4 mps 753 mmHg 86%
    19:00 +3°C° 0.6 mm 4 mps 753 mmHg 88%
    20:00 +3°C° 0.5 mm 4 mps 753 mmHg 89%
    21:00 +3°C° 0.5 mm 4 mps 753 mmHg 89%
    22:00 +3°C° 0.5 mm 5 mps 752 mmHg 89%
    23:00 +4°C° 1.1 mm 4 mps 752 mmHg 90%

    2 March, Friday

    Time Temperature Precipitation Wind Pressure Humidity
    00:00 +4°C° 1.1 mm 4 mps 751 mmHg 91%
    01:00 +5°C° 1.1 mm 4 mps 751 mmHg 92%
    02:00 +5°C° 1.4 mm 4 mps 750 mmHg 93%
    03:00 +5°C° 1.4 mm 4 mps 749 mmHg 93%
    04:00 +6°C° 1.4 mm 4 mps 749 mmHg 94%
    05:00 +6°C° 1.7 mm 4 mps 749 mmHg 94%
    06:00 +6°C° 1.7 mm 4 mps 749 mmHg 94%
    07:00 +6°C° 1.7 mm 4 mps 748 mmHg 95%
    08:00 +6°C° 1.9 mm 4 mps 748 mmHg 95%
    09:00 +7°C° 1.9 mm 4 mps 749 mmHg 95%
    10:00 +7°C° 1.9 mm 4 mps 749 mmHg 95%
    11:00 +8°C° 1.7 mm 3 mps 748 mmHg 95%
    12:00 +8°C° 1.7 mm 3 mps 748 mmHg 95%
    13:00 +8°C° 1.7 mm 3 mps 748 mmHg 95%
    14:00 +8°C° 0.9 mm 3 mps 748 mmHg 95%
    15:00 +8°C° 0.9 mm 3 mps 748 mmHg 95%
    16:00 +8°C° 0.9 mm 3 mps 748 mmHg 95%
    17:00 +8°C° 1.1 mm 3 mps 748 mmHg 95%
    18:00 +8°C° 1.1 mm 3 mps 749 mmHg 95%
    19:00 +8°C° 1.1 mm 3 mps 749 mmHg 95%
    20:00 +8°C° 1.3 mm 3 mps 749 mmHg 95%
    21:00 +8°C° 1.3 mm 3 mps 749 mmHg 95%
    22:00 +8°C° 1.3 mm 3 mps 749 mmHg 95%
    23:00 +9°C° 1.2 mm 2 mps 749 mmHg 95%
    Show more